Lexington Weather

Lexington, Massachusetts, USA

43°F
11/27/2020 3:54am 
  • Lexington Conditions: Fog, Overcast
  • Temperature: 42.6°F / 5.9°CWarmer 2.9°F than last hour.
  • Dew Point: 41.9°FIncreased 2.9°Fsince last hour.
  • Relative Humidity: 97
  • Wind: Calm, 10-min avg: Calm, gust: None
  • Barometer: 29.97 in Steady
  • Visibility: ½ mile
  • Rain Today: 0.00 in
  •   
Southeast Middlesex County - Special Weather Statement - Special Weather Statement
 - SEE ALL NEARBY ALERTS -

Regional Weather Roundup
for Boston / Norton, MA

        
000
ASUS41 KBOX 250304
RWRBOX

REGIONAL WEATHER ROUNDUP
NATIONAL WEATHER SERVICE BOSTON/NORTON MA
1000 PM EST TUE NOV 24 2020

NOTE:  "FAIR" INDICATES FEW OR NO CLOUDS BELOW 12,000 FEET WITH NO 
SIGNIFICANT WEATHER AND/OR OBSTRUCTIONS TO VISIBILITY.

MAZALL-250400-
EASTERN MASSACHUSETTS
  
CITY           SKY/WX    TMP DP  RH WIND       PRES   REMARKS
BOSTON         PTCLDY    30  15  53 N6        30.48R WCI  24          
BEVERLY        CLEAR     29  13  51 NE6       30.46R WCI  23          
LAWRENCE       CLEAR     28  14  55 NE6       30.48R WCI  22          
BEDFORD        CLEAR     28  15  58 CALM      30.45R                  
BLUE HILL        N/A     29  16  58 NE9       30.42R WCI  20          
NORWOOD        PTCLDY    26  22  84 CALM      30.46S                  
MARSHFIELD     PTCLDY    37  23  56 VRB6      30.46S                  
PLYMOUTH       PTCLDY    26  22  84 N5        30.44S WCI  20          
TAUNTON        PTCLDY    24  20  84 CALM      30.45R                  
NEW BEDFORD    PTCLDY    25  23  92 CALM      30.44S                  
$$

MAZALL-250400-
CAPE COD AND THE ISLANDS
  
CITY           SKY/WX    TMP DP  RH WIND       PRES   REMARKS
FALMOUTH       CLEAR     32  21  64 N6        30.44S WCI  26          
HYANNIS        CLEAR     36  24  62 N6        30.43S WCI  31          
CHATHAM        CLEAR     37  21  52 VRB3      30.45R                  
PROVINCETOWN   CLEAR     37  20  50 N12G17    30.46R WCI  29          
NANTUCKET      CLEAR     35  25  66 NE8       30.44R WCI  29          
MARTHAS VNYRD  PTCLDY    25  19  78 NE3       30.44S                  
$$
 
MAZALL-250400-
CENTRAL AND WESTERN MASSACHUSETTS
  
CITY           SKY/WX    TMP DP  RH WIND       PRES   REMARKS
WORCESTER      PTCLDY    30  14  51 NE5       30.41R WCI  25          
FITCHBURG      CLEAR     28  17  63 CALM      30.45R                  
ORANGE         CLEAR     24  21  88 CALM      30.43R                  
SPRINGFIELD    MOCLDY    26  22  83 CALM      30.42R                  
WESTFIELD      PTCLDY    27  22  81 CALM      30.42S                  
NORTH ADAMS    PTCLDY    25  21  85 SW3       30.42S                  
PITTSFIELD     PTCLDY    25  20  81 NE3       30.37S                  
$$
 
RIZALL-250400-
RHODE ISLAND
  
CITY           SKY/WX    TMP DP  RH WIND       PRES   REMARKS
PROVIDENCE     PTCLDY    35  20  54 CALM      30.45S                  
NEWPORT        PTCLDY    33  19  56 NE6       30.44R WCI  28          
BLOCK ISLAND   CLEAR     38  21  50 N6        30.44S                  
SMITHFIELD     PTCLDY    32  18  56 NE6       30.44S WCI  26          
WESTERLY       PTCLDY    29  24  82 CALM      30.45R                  
$$
 
CTZALL-250400-
CONNECTICUT
  
CITY           SKY/WX    TMP DP  RH WIND       PRES   REMARKS
BRADLEY INTL   MOCLDY    32  21  64 CALM      30.43S                  
HARTFORD       MOCLDY    32  25  75 CALM      30.44S                  
BRIDGEPORT     MOCLDY    38  26  62 NE3       30.42F                  
DANBURY        MOCLDY    29  25  85 CALM      30.43S                  
GROTON         PTCLDY    31  25  78 NE6       30.44R WCI  25          
NEW HAVEN      MOCLDY    35  23  61 N6        30.43S WCI  30          
CHESTER        FAIR      34  21  60 CALM      30.42S                  
MERIDEN        MOCLDY    28  23  81 CALM      30.43F                  
WILLIMANTIC    PTCLDY    28  23  81 CALM      30.44R                  
OXFORD         MOCLDY    33  21  61 NE5       30.41S WCI  29          
$$

MEZ002-015-021-024-NHZ003-005-008-011-012-014-VTZ005-008-250400-
NORTHERN NEW ENGLAND
  
CITY           SKY/WX    TMP DP  RH WIND       PRES   REMARKS
PORTLAND ME    PTCLDY    25  13  60 NE7       30.49R WCI  17          
BANGOR ME      CLEAR     22  11  62 W5        30.48R WCI  16          
CONCORD NH     CLEAR     23  12  62 NW3       30.45S                  
MANCHESTER NH  PTCLDY    28  12  51 N8        30.44R WCI  20          
NASHUA NH      CLEAR     25  17  72 CALM      30.47R                  
PORTSMOUTH NH  PTCLDY    28  11  50 NE7       30.45R WCI  20          
JAFFREY NH     CLEAR     26  16  65 CALM      30.40R                  
KEENE NH       CLEAR     24  21  88 CALM      30.44R                  
BURLINGTON VT  MOCLDY    22  13  68 E3        30.43F                  
MT. WASHINGTON CLOUDY    16 -27  13 NW15        N/A  WCI   1          
$$

NYZ052-076-250400-
EASTERN NEW YORK
  
CITY           SKY/WX    TMP DP  RH WIND       PRES   REMARKS
ALBANY         MOCLDY    26  18  71 N6        30.44S WCI  19          
NEW YORK CITY  MOCLDY    46  26  45 E6        30.41S                  
$$
 
ANZALL-250400-
MARINE OBSERVATIONS
  
STATION/POSITION TIME  TEMP    WIND        PRES    VSBY  WAVE
                       AIR SEA DIR/SP/G                  HT/PER
                 (UTC) (F)     (DEG/KT/KT) (MB)    (MI)  (FT/S)
BOSTON BUOY      0240   38 50   10/ 16/ 19 1031.9R
BUZZARDS BAY     0200           20/  9/ 11 1031.6R
NANTUCKET SOUND  0240      51   20/ 10/ 14   N/A
MASS BAY-STELLWA NOT AVBL
ISLE OF SHOALS   0200   32      10/ 14/ 16 1031.1R
S OF BLOCK IS    0226      57                N/A           2/10
$$

......................KEY.........................
  SKY/WX - SKY CONDITION/PRESENT WEATHER
  TMP    - TEMPERATURE IN FAHRENHEIT
  DWPT   - DEWPOINT IN FAHRENHEIT
  RH     - RELATIVE HUMIDITY IN PERCENT
  WIND   - DIRECTION AND SPEED IN MPH
  PRES   - MEAN SEA LEVEL PRESSURE IN INCHES OF HG
  WCI    - WIND CHILL INDEX
  VSB    - VISIBILITY IN MILES
  HX     - HEAT INDEX
  TC     - TEMPERATURE IN CELSIUS
  VRB    - VARIABLE WIND DIRECTION
  N/A    - NOT AVAILABLE
  
      

Other recent Regional Weather Roundups

Fri Nov 27, 1:04am

Fri Nov 27, 12:04am

Thu Nov 26, 11:04pm

Thu Nov 26, 10:04pm

Thu Nov 26, 9:04pm

Thu Nov 26, 8:04pm

Thu Nov 26, 7:04pm

Thu Nov 26, 6:04pm

Thu Nov 26, 5:04pm

Thu Nov 26, 4:04pm

Thu Nov 26, 2:04pm

Thu Nov 26, 1:04pm

Thu Nov 26, 12:04pm

Thu Nov 26, 11:04am

Thu Nov 26, 10:04am

Thu Nov 26, 9:04am

Thu Nov 26, 8:04am

Thu Nov 26, 7:04am

Thu Nov 26, 6:04am

Thu Nov 26, 5:04am

Thu Nov 26, 4:04am

Thu Nov 26, 3:04am

Thu Nov 26, 2:04am

Thu Nov 26, 1:04am

Thu Nov 26, 12:04am

Wed Nov 25, 11:04pm

Wed Nov 25, 10:04pm

Wed Nov 25, 9:04pm

Wed Nov 25, 8:04pm

Wed Nov 25, 7:04pm

Wed Nov 25, 6:04pm

Wed Nov 25, 5:04pm

Wed Nov 25, 4:04pm

Wed Nov 25, 3:05pm

Wed Nov 25, 2:04pm

Wed Nov 25, 1:04pm

Wed Nov 25, 12:05pm

Wed Nov 25, 11:04am

Wed Nov 25, 10:04am

Wed Nov 25, 9:04am

Wed Nov 25, 8:04am

Wed Nov 25, 7:04am

Wed Nov 25, 6:04am

Wed Nov 25, 5:04am

Wed Nov 25, 4:04am

Wed Nov 25, 3:04am

Wed Nov 25, 2:04am

Wed Nov 25, 1:04am

Wed Nov 25, 12:04am

Tue Nov 24, 11:04pm

Tue Nov 24, 9:04pm

Tue Nov 24, 8:04pm

Tue Nov 24, 7:04pm

Tue Nov 24, 6:04pm

Tue Nov 24, 5:04pm

Tue Nov 24, 4:05pm

Tue Nov 24, 3:05pm

Tue Nov 24, 2:05pm

Tue Nov 24, 1:05pm

Tue Nov 24, 12:04pm

Tue Nov 24, 11:04am

Tue Nov 24, 10:04am

Tue Nov 24, 9:04am

Tue Nov 24, 8:04am

Tue Nov 24, 7:04am

Tue Nov 24, 6:04am

Tue Nov 24, 5:04am

Tue Nov 24, 4:05am

Tue Nov 24, 3:04am

Tue Nov 24, 2:04am

Tue Nov 24, 1:04am

Tue Nov 24, 12:05am

Mon Nov 23, 11:04pm

Mon Nov 23, 10:04pm

Mon Nov 23, 9:04pm

Mon Nov 23, 8:04pm

Mon Nov 23, 7:04pm

Mon Nov 23, 6:04pm

Mon Nov 23, 5:04pm

Mon Nov 23, 4:04pm

Mon Nov 23, 3:04pm

Mon Nov 23, 2:04pm

Mon Nov 23, 1:04pm

Mon Nov 23, 12:04pm

Mon Nov 23, 11:04am

Mon Nov 23, 10:04am

Mon Nov 23, 9:04am

Mon Nov 23, 8:05am

Mon Nov 23, 7:04am

Mon Nov 23, 6:04am

Mon Nov 23, 5:04am

Mon Nov 23, 4:04am

Mon Nov 23, 3:04am

Mon Nov 23, 2:04am

Mon Nov 23, 1:04am

Mon Nov 23, 12:05am

Sun Nov 22, 11:04pm

Sun Nov 22, 10:04pm

Sun Nov 22, 9:04pm

Sun Nov 22, 8:05pm

Sun Nov 22, 7:04pm

Sun Nov 22, 6:04pm

Sun Nov 22, 5:04pm

Sun Nov 22, 4:04pm

Sun Nov 22, 3:04pm

Sun Nov 22, 2:04pm

Sun Nov 22, 1:05pm

Sun Nov 22, 12:04pm

Sun Nov 22, 11:04am

Sun Nov 22, 10:05am

Sun Nov 22, 9:04am

Sun Nov 22, 8:04am

Sun Nov 22, 7:04am

Sun Nov 22, 6:04am

Sun Nov 22, 5:04am

Sun Nov 22, 4:04am

Sun Nov 22, 3:04am

Sun Nov 22, 2:04am

Sun Nov 22, 1:04am

Sun Nov 22, 12:04am

Sat Nov 21, 11:04pm

Sat Nov 21, 10:04pm

Sat Nov 21, 9:04pm

Sat Nov 21, 8:05pm

Sat Nov 21, 7:04pm

Sat Nov 21, 6:04pm

Sat Nov 21, 5:04pm

Sat Nov 21, 4:05pm

Sat Nov 21, 3:04pm

Sat Nov 21, 2:04pm

Sat Nov 21, 1:05pm

Sat Nov 21, 12:04pm

Sat Nov 21, 11:04am

Sat Nov 21, 10:04am

Sat Nov 21, 9:04am

Sat Nov 21, 8:04am

Sat Nov 21, 7:04am

Sat Nov 21, 6:04am

Sat Nov 21, 5:04am

Sat Nov 21, 4:04am

Sat Nov 21, 3:04am

Sat Nov 21, 2:04am

Sat Nov 21, 1:04am

Sat Nov 21, 12:04am

Fri Nov 20, 11:04pm

Fri Nov 20, 10:04pm

Fri Nov 20, 9:04pm

Fri Nov 20, 8:04pm

Fri Nov 20, 7:04pm

Fri Nov 20, 6:04pm

Fri Nov 20, 5:04pm

Fri Nov 20, 4:05pm

Fri Nov 20, 3:05pm

Fri Nov 20, 2:04pm

Fri Nov 20, 1:04pm

Fri Nov 20, 12:04pm

Fri Nov 20, 11:04am

Fri Nov 20, 10:04am

Fri Nov 20, 9:04am

Fri Nov 20, 8:04am

Fri Nov 20, 7:04am

Fri Nov 20, 6:04am

Fri Nov 20, 5:04am

Fri Nov 20, 4:04am

Meta data:

ID: b2de5a89-ed1d-4e18-a4e4-999e7a8fdcdb
Link: https://api.weather.gov/products/b2de5a89-ed1d-4e18-a4e4-999e7a8fdcdb